Regional Weather Roundup
Issued by NWS

Home | Current Version | Previous Version | Text Only | Print | Product List | Glossary Off
Versions: 1 2 3 4 5 6 7 8 9 10 11 12 13 14 15 16 17 18 19 20 21 22 23 24 25 26 27

000
ASUS45 KSLC 251010
RWRUT

UTAH REGIONAL WEATHER ROUNDUP
NATIONAL WEATHER SERVICE SALT LAKE CITY UT
400 AM MDT SUN JUN 25 2017

UTZ001>011-023>025-251100-

NORTHERN UTAH

CITY           SKY/WX    TMP DP  RH WIND       PRES   REMARKS
BRIGHAM CITY   CLEAR     60  42  51 N3        30.18S
HILL AFB       CLEAR     62  38  41 E22       30.19S
LOGAN          CLEAR     52  46  80 N3        30.21F
OGDEN          CLEAR     62  39  42 S6        30.17S
SALT LAKE CITY CLEAR     67  42  40 SE5       30.15S
TOOELE VALLEY  CLEAR     52  30  43 SE8       30.18S
WENDOVER         N/A     72  31  22 SW3       30.16S
HEBER CITY     CLEAR     43  36  75 CALM      30.27S
WEST JORDAN    CLEAR     61  42  50 CALM      30.18S

$$

UTZ011>015-024>027-251100-

CENTRAL/NORTHEAST UTAH

CITY           SKY/WX    TMP DP  RH WIND       PRES   REMARKS
PROVO AIRPORT  CLEAR     59  39  47 SE3       30.19S
MOAB/CANYONLAN CLEAR     70  21  15 W5        30.09S
DELTA          CLEAR     54  28  37 CALM      30.17S
PRICE          CLEAR     62  27  26 N7        30.22S
RICHFIELD      CLEAR     50  37  62 CALM      30.24S
VERNAL         CLEAR     62  33  33 W6        30.22S

$$

UTZ013>016-019>022-027-251100-

SOUTHERN UTAH

CITY           SKY/WX    TMP DP  RH WIND       PRES   REMARKS
BRYCE CANYON   PTCLDY    42  21  43 W8        30.36F
CEDAR CITY     CLEAR     58  23  26 CALM      30.20S
MILFORD        CLEAR     56  17  21 N3        30.17F
ST GEORGE      SUNNY     84  24  11 E5        29.93S
HANKSVILLE     CLEAR     66  21  18 NW6       30.13S
KANAB          CLEAR     72  23  16 NW13      30.14S
BLANDING       PTCLDY    67  22  18 N12       30.25S

$$

REGIONAL REPORTS     COLORADO/ARIZONA

CITY           SKY/WX    TMP DP  RH WIND       PRES   REMARKS
CRAIG, CO      CLEAR     42  35  76 CALM      30.30S
GRAND JUNCTION CLEAR     65  28  24 SE3       30.16S
RIFLE, CO      CLEAR     53  27  36 CALM      30.26S
MONTROSE, CO   CLOUDY    56  32  40 S9        30.26R
CORTEZ, CO     CLOUDY    46  29  51 CALM      30.22R
COLORADO CITY    N/A     72  25  17 N6        30.12S
PAGE, AZ       CLEAR     76  25  15 S3        30.04S
GRAND CANYON   MOCLDY    53  28  38 NE3       30.24S
KINGMAN, AZ    MOCLDY    82  28  14 CALM      29.93S
FLAGSTAFF, AZ  MOCLDY    67  30  25 SW6       30.26S

$$

REGIONAL REPORTS    NEVADA/IDAHO/WYOMING

CITY           SKY/WX    TMP DP  RH WIND       PRES   REMARKS
LAS VEGAS, NV  MOCLDY    96  30   9 CALM      29.83R HX  90
ELY, NY        PTCLDY    48  23  37 S9        30.29R
ELKO, NV       PTCLDY    52  41  66 S3        30.22R
POCATELLO, ID  CLEAR     50  45  83 N3        30.23R
BURLEY, ID     CLEAR     51  42  71 CALM      30.18S
FORT BRIDGER,    N/A     49  33  53 N7        30.41R
EVANSTON, WY   CLOUDY    51  35  54 E8        30.38R
ROCK SPRINGS,  CLEAR     51  31  46 E10       30.37R
KEMMERER, WY     N/A     52  32  46 N9        30.41S

$$




USA.gov is the U.S. government's official web portal to all federal, state and local government web resources and services.